User: anonymous   Login
Location: Caltech
(34.1382°N, 118.1253°W)
Time: 02:56:14
(UTC-08:00)
Language:

Cosmos 1508 Rocket - Orbit

View from above orbital plane
View from above orbital plane
View from above satellite
View from above satellite

Ground track
Ground track

The orbit data is extracted from the following two-line orbital elements,

1 14484U 83111B   15029.22121752  .00081180  51875-6  75092-3 0  7897
2 14484 082.8323 107.4886 0148923 173.2595 275.6644 15.54368050607365
Epoch (UTC): 29 January 2015 05:18:33
Eccentricity: 0.0148923
inclination: 82.8323°
perigee height: 303 km
apogee height: 505 km
right ascension of ascending node: 107.4886°
argument of perigee: 173.2595°
revolutions per day: 15.54368050
mean anomaly at epoch: 275.6644°
orbit number at epoch: 60736

The dashed part of the orbit path shows where the satellite is in the earth's shadow,  

DLR